"Pseudo-MPEC" for P10ImfO

Created 2018 Jul 18 16:18:11 UT using Find_Orb

Click here for an explanation of pseudo-MPECs

 
 Astrometry: 
     P10ImfO  C2018 07 11#FAstrometrypAYg%IJhS#6Yj/o0`QHVqcoukbv!fBqa8A%c/X@EF51
     P10ImfO  C2018 07 11k1.aAnli$cSs=(?Y$redacted;@yFka^see\'!k:A6+RxFMl8=JUF51
     P10ImfO  C2018 07 11Jwr,,06+0\F3@(nuM.=no;:Ba-91b=/5I%u3pD,'1c%!7h=NEOCPF51

Station data:
(F51) Pan-STARRS 1, Haleakala  (N20.707235 W156.255910)  US/Hawaii.
   Observers N. Primak, A. Schultz, S. Watters, J. Thiel, T. Goggia. Measurer
   PS1 Science Consortium. 1.8-m Ritchey-Chrétien + CCD.

Orbital elements:  P10ImfO
   Perihelion 2018 Apr 11.443016 +/- 22.5 TT = 10:37:56 (JD 2458219.943016)
Epoch 2018 Jul 11.0 TT = JDT 2458310.5   Earth MOID: 0.0007   AutoNEOCP
M  88.87460 +/- 31                  (J2000 ecliptic)
n   0.98142189 +/- 0.563            Peri.  257.77119 +/- 60
a   1.00284132 +/- 0.384            Node   282.18820 +/- 49
e   0.1672364 +/- 0.241             Incl.    1.17774 +/- 9
P   1.00/366.81d           H 27.4   G  0.15   U 12.4  SR
q 0.83512974 +/- 0.329    Q 1.17055290 +/- 34
From 3 observations 2018 July 11 (56.0 min); mean residual 0".19
Residuals in arcseconds: 
180711 F51  .04-  .25-    180711 F51  .06+  .37+    180711 F51  .02-  .12-    

Ephemerides (geocentric):
Date (UTC) HH   RA              Dec         delta   r     elong  mag " sig PA
---- -- -- --  -------------   -----------  ------ ------ -----  --- ---- ---
2018 07 18 16  17 33 48.411   -16 13 44.27  .03746 1.0480 147.2 21.7  27d 173
2018 07 18 17  17 34 03.425   -16 14 01.15  .03758 1.0481 147.3 21.7  27d 173
2018 07 18 18  17 34 18.350   -16 14 17.89  .03771 1.0482 147.3 21.7  27d 173
2018 07 18 19  17 34 33.188   -16 14 34.49  .03783 1.0483 147.3 21.8  27d 173
2018 07 18 20  17 34 47.939   -16 14 50.94  .03796 1.0484 147.3 21.8  28d 173
2018 07 18 21  17 35 02.604   -16 15 07.26  .03808 1.0485 147.3 21.8  28d 173
2018 07 18 22  17 35 17.184   -16 15 23.44  .03820 1.0486 147.4 21.8  28d 173
2018 07 18 23  17 35 31.680   -16 15 39.48  .03833 1.0487 147.4 21.8  28d 173
2018 07 19 00  17 35 46.092   -16 15 55.39  .03845 1.0489 147.4 21.8  28d 173
2018 07 19 01  17 36 00.421   -16 16 11.17  .03858 1.0490 147.4 21.8  28d 173
2018 07 19 02  17 36 14.669   -16 16 26.82  .03870 1.0491 147.4 21.8  28d 173
2018 07 19 03  17 36 28.835   -16 16 42.34  .03883 1.0492 147.5 21.8  28d 173
2018 07 19 04  17 36 42.921   -16 16 57.73  .03895 1.0493 147.5 21.8  28d 172
2018 07 19 05  17 36 56.927   -16 17 13.00  .03908 1.0494 147.5 21.8  28d 172
2018 07 19 06  17 37 10.854   -16 17 28.15  .03920 1.0495 147.5 21.8  28d 172
2018 07 19 07  17 37 24.703   -16 17 43.18  .03933 1.0496 147.5 21.8  29d 172
2018 07 19 08  17 37 38.475   -16 17 58.08  .03945 1.0497 147.5 21.8  29d 172
2018 07 19 09  17 37 52.169   -16 18 12.87  .03958 1.0498 147.6 21.8  29d 172
2018 07 19 10  17 38 05.788   -16 18 27.54  .03970 1.0500 147.6 21.9  29d 172
2018 07 19 11  17 38 19.331   -16 18 42.09  .03983 1.0501 147.6 21.9  29d 172
2018 07 19 12  17 38 32.799   -16 18 56.53  .03995 1.0502 147.6 21.9  29d 172
2018 07 19 13  17 38 46.193   -16 19 10.86  .04008 1.0503 147.6 21.9  29d 172
2018 07 19 14  17 38 59.514   -16 19 25.08  .04020 1.0504 147.6 21.9  29d 172
2018 07 19 15  17 39 12.762   -16 19 39.19  .04033 1.0505 147.6 21.9  29d 172
2018 07 19 16  17 39 25.938   -16 19 53.19  .04045 1.0506 147.7 21.9  29d 172
2018 07 19 17  17 39 39.043   -16 20 07.08  .04058 1.0507 147.7 21.9  29d 172
2018 07 19 18  17 39 52.077   -16 20 20.87  .04071 1.0508 147.7 21.9  29d 172
2018 07 19 19  17 40 05.040   -16 20 34.55  .04083 1.0509 147.7 21.9  30d 172
2018 07 19 20  17 40 17.934   -16 20 48.13  .04096 1.0510 147.7 21.9  30d 172
2018 07 19 21  17 40 30.760   -16 21 01.61  .04108 1.0512 147.7 21.9  30d 172
2018 07 19 22  17 40 43.517   -16 21 14.98  .04121 1.0513 147.7 21.9  30d 172
2018 07 19 23  17 40 56.206   -16 21 28.26  .04133 1.0514 147.7 21.9  30d 172
2018 07 20 00  17 41 08.828   -16 21 41.44  .04146 1.0515 147.7 21.9  30d 172
2018 07 20 01  17 41 21.384   -16 21 54.53  .04159 1.0516 147.8 22.0  30d 172
2018 07 20 02  17 41 33.874   -16 22 07.52  .04171 1.0517 147.8 22.0  30d 172
2018 07 20 03  17 41 46.298   -16 22 20.41  .04184 1.0518 147.8 22.0  30d 172
2018 07 20 04  17 41 58.658   -16 22 33.21  .04196 1.0519 147.8 22.0  30d 172
2018 07 20 05  17 42 10.953   -16 22 45.92  .04209 1.0520 147.8 22.0  30d 172
2018 07 20 06  17 42 23.185   -16 22 58.54  .04222 1.0521 147.8 22.0  30d 172
2018 07 20 07  17 42 35.354   -16 23 11.07  .04234 1.0522 147.8 22.0  30d 172
2018 07 20 08  17 42 47.460   -16 23 23.51  .04247 1.0524 147.8 22.0  31d 172
2018 07 20 09  17 42 59.504   -16 23 35.86  .04260 1.0525 147.8 22.0  31d 172
2018 07 20 10  17 43 11.487   -16 23 48.13  .04272 1.0526 147.8 22.0  31d 172
2018 07 20 11  17 43 23.409   -16 24 00.31  .04285 1.0527 147.9 22.0  31d 172
2018 07 20 12  17 43 35.270   -16 24 12.41  .04298 1.0528 147.9 22.0  31d 172
2018 07 20 13  17 43 47.072   -16 24 24.42  .04310 1.0529 147.9 22.0  31d 172
2018 07 20 14  17 43 58.814   -16 24 36.35  .04323 1.0530 147.9 22.0  31d 172
2018 07 20 15  17 44 10.498   -16 24 48.20  .04336 1.0531 147.9 22.0  31d 172